Location: Parkway Village
(35.0643°N, 89.9062°W)
Time: 16:06:47
(UTC+00:00)

BlueWalker 3 - Pass Details

Date: 20 August 2024
Orbit: 475 x 487 km, 53.2° (Epoch: 17 September)

Event Time Altitude Azimuth Distance (km) Brightness Sun altitude
Rises 10:28:56 0° 320° (NW) 2,566 5.4 -11.4°
Reaches altitude 10° 10:31:11 10° 327° (NNW) 1,682 4.5 -11.0°
Maximum altitude 10:34:50 43° 40° (NE) 693 3.2 -10.3°
Drops below altitude 10° 10:38:28 10° 114° (ESE) 1,674 5.3 -9.6°
Sets 10:40:42 0° 121° (ESE) 2,550 6.1 -9.2°
